Szeged, Hungary

7:32 PM CEST on May 23, 2018 (GMT +0200)
Szeged

Weather History for LHUD - September, 2013

Change the Weather History Date:

Monday, September 23, 2013

  Actual Average (LRAR) Record (LRAR)
Temperature  
Mean Temperature 58 °F -  
Max Temperature 70 °F 66 °F 86 °F (2003)
Min Temperature 46 °F 44 °F 39 °F (1997)
Degree Days  
Heating Degree Days 7    
Growing Degree Days 8 (Base 50)    
Moisture  
Dew Point 49 °F    
Average Humidity 65    
Maximum Humidity 87    
Minimum Humidity 44    
Precipitation  
Precipitation 0.00 in 0.04 in - ()
Sea Level Pressure  
Sea Level Pressure 30.06 in    
Wind  
Wind Speed 9 mph ()    
Max Wind Speed 22 mph    
Max Gust Speed 28 mph    
Visibility 7.6 miles    
Events      
Averages and records for this station are not official NWS values.
T = Trace of Precipitation, MM = Missing Value Source: Averaged Metar Reports

Daily Weather History Graph

Daily Weather History Graph

Search for Another Location

Airport or City:

Astronomy

Sep. 23, 2013 Rise Set
Actual Time 6:27 AM CEST 6:35 PM CEST
Civil Twilight 5:57 AM CEST 7:05 PM CEST
Nautical Twilight 5:22 AM CEST 7:40 PM CEST
Astronomical Twilight 4:46 AM CEST 8:16 PM CEST
Moon 8:38 PM CEST 10:44 AM CEST
Length of Visible Light 13h 07m
Length of Day
12h 07m
Waning Gibbous, 83% of the Moon is Illuminated
Sep 23
Waning Gibbous
Sep 27
Last Quarter
Oct 5
New
Oct 12
First Quarter
Oct 19
Full

Hourly Weather History & Observations

Time (CEST) Temp. Dew Point Humidity Pressure Visibility Wind Dir Wind Speed Gust Speed Precip Events Conditions
12:45 AM 48.2 °F 44.6 °F 87% 30.21 in - West 2.3 mph - N/A   Clear
1:45 AM 46.4 °F 42.8 °F 87% 30.21 in - West 2.3 mph - N/A   Clear
2:00 AM 47 °F 43 °F 82% 30.20 in 9 mi West 2.2 mph - -   Partly Cloudy
2:45 AM 46.4 °F 42.8 °F 87% 30.18 in - WSW 2.3 mph - N/A   Clear
3:45 AM 50.0 °F 44.6 °F 82% 30.15 in - West 2.3 mph - N/A   Clear
4:45 AM 51.8 °F 46.4 °F 82% 30.15 in - West 5.8 mph - N/A   Clear
5:45 AM 51.8 °F 46.4 °F 82% 30.12 in - West 4.6 mph - N/A   Clear
6:15 AM 53.6 °F 46.4 °F 77% 30.12 in - West 8.1 mph - N/A   Clear
6:45 AM 53.6 °F 46.4 °F 77% 30.12 in - West 8.1 mph - N/A   Clear
7:15 AM 53.6 °F 46.4 °F 77% 30.12 in - West 9.2 mph - N/A   Clear
7:45 AM 55.4 °F 46.4 °F 72% 30.12 in - West 8.1 mph - N/A   Clear
8:00 AM 55 °F 47 °F 66% 30.12 in 19 mi West 6.7 mph - -   Partly Cloudy
8:15 AM 57.2 °F 48.2 °F 72% 30.12 in - West 9.2 mph - N/A   Clear
8:45 AM 59.0 °F 48.2 °F 67% 30.09 in - West 11.5 mph - N/A   Clear
9:15 AM 60.8 °F 50.0 °F 68% 30.09 in - WNW 12.7 mph - N/A   Clear
9:45 AM 62.6 °F 48.2 °F 59% 30.09 in - WNW 16.1 mph - N/A   Clear
10:15 AM 64.4 °F 50.0 °F 59% 30.09 in - WNW 17.3 mph - N/A   Clear
10:22 AM 64.4 °F 50.0 °F 59% 30.09 in - WNW 16.1 mph 27.6 mph N/A   Unknown
10:23 AM 64.4 °F 50.0 °F 59% 30.09 in - WNW 16.1 mph - N/A   Clear
10:45 AM 64.4 °F 48.2 °F 56% 30.09 in 6.2 mi WNW 16.1 mph - N/A   Mostly Cloudy
11:15 AM 64.4 °F 48.2 °F 56% 30.06 in 6.2 mi WNW 16.1 mph - N/A   Mostly Cloudy
11:45 AM 66.2 °F 50.0 °F 56% 30.06 in 6.2 mi WNW 18.4 mph - N/A   Mostly Cloudy
12:15 PM 66.2 °F 50.0 °F 56% 30.06 in 6.2 mi WNW 19.6 mph - N/A   Mostly Cloudy
12:45 PM 66.2 °F 50.0 °F 56% 30.06 in 6.2 mi WNW 18.4 mph - N/A   Mostly Cloudy
1:15 PM 68.0 °F 51.8 °F 56% 30.06 in 6.2 mi WNW 16.1 mph - N/A   Mostly Cloudy
1:45 PM 68.0 °F 51.8 °F 56% 30.04 in 6.2 mi WNW 18.4 mph - N/A   Mostly Cloudy
2:00 PM 68 °F 51 °F 44% 30.04 in 25 mi WNW 17.9 mph - -   Partly Cloudy
2:15 PM 66.2 °F 50.0 °F 56% 30.04 in 6.2 mi WNW 19.6 mph - N/A   Mostly Cloudy
2:45 PM 69.8 °F 51.8 °F 53% 30.04 in 6.2 mi WNW 18.4 mph - N/A   Mostly Cloudy
3:15 PM 69.8 °F 51.8 °F 53% 30.01 in 6.2 mi WNW 21.9 mph - N/A   Mostly Cloudy
3:45 PM 68.0 °F 50.0 °F 52% 30.01 in 6.2 mi WNW 19.6 mph - N/A   Mostly Cloudy
4:15 PM 66.2 °F 50.0 °F 56% 30.01 in 6.2 mi WNW 13.8 mph - N/A   Mostly Cloudy
4:45 PM 66.2 °F 51.8 °F 60% 30.01 in 6.2 mi West 9.2 mph - N/A   Mostly Cloudy
5:15 PM 66.2 °F 51.8 °F 60% 30.01 in 6.2 mi West 12.7 mph - N/A   Mostly Cloudy
5:45 PM 66.2 °F 50.0 °F 56% 29.98 in 6.2 mi WNW 12.7 mph - N/A   Mostly Cloudy
6:15 PM 66.2 °F 50.0 °F 56% 30.01 in 6.2 mi WNW 15.0 mph - N/A   Scattered Clouds
6:21 PM 66.2 °F 50.0 °F 56% 30.01 in - WNW 16.1 mph 27.6 mph N/A   Unknown
6:45 PM 66.2 °F 50.0 °F 56% 30.01 in 6.2 mi WNW 12.7 mph - N/A   Mostly Cloudy
7:15 PM 64.4 °F 50.0 °F 59% 29.98 in 6.2 mi WNW 15.0 mph - N/A   Scattered Clouds
7:45 PM 64.4 °F 50.0 °F 59% 29.98 in - WNW 13.8 mph - N/A   Clear
8:00 PM 64 °F 51 °F 52% 29.98 in 19 mi WNW 13.4 mph - -   Partly Cloudy
8:15 PM 62.6 °F 50.0 °F 63% 29.98 in - WNW 12.7 mph - N/A   Clear
8:45 PM 60.8 °F 50.0 °F 68% 29.98 in - West 10.4 mph - N/A   Clear
9:15 PM 60.8 °F 50.0 °F 68% 29.98 in - West 9.2 mph - N/A   Clear
9:45 PM 60.8 °F 50.0 °F 68% 29.98 in - West 11.5 mph - N/A   Clear
10:23 PM 60.8 °F 50.0 °F 68% 29.98 in - West 16.1 mph 27.6 mph N/A   Unknown
10:24 PM - - N/A% - - North - - N/A   Clear
10:45 PM 60.8 °F 50.0 °F 68% 29.95 in - WNW 17.3 mph - N/A   Clear
11:45 PM 59.0 °F 50.0 °F 72% 29.95 in - West 16.1 mph - N/A   Clear